DW7164 Weather Reports


time (UTC)temp
F
wind
direction
speed
knots
gust
knots
rain 1hr
in
rain 24hr
in
rain mn
in
humidity
%
barometer
mb
20260906204538 65 106 6.1 11.3 0.00 0.00 0.00 64 1011.5
20260906203038 65 106 6.1 10.4 0.00 0.00 0.00 67 1011.8
20260906201533 64 106 7.0 13.9 0.00 0.00 0.00 67 1011.8
20260906200039 64 106 4.3 8.7 0.00 0.00 0.00 68 1012.0
20260906194527 63 106 6.1 11.3 0.00 0.00 0.00 68 1012.2
20260906193025 63 106 6.1 11.3 0.00 0.00 0.00 71 1012.3
20260906191522 61 106 4.3 10.4 0.00 0.00 0.00 71 1012.4
20260906190019 61 106 7.0 13.0 0.00 0.00 0.00 73 1012.6
20260906184517 61 106 4.3 9.6 0.00 0.00 0.00 75 1012.7
20260906183027 60 106 6.1 11.3 0.00 0.00 0.00 74 1012.7
20260906181513 60 106 6.1 11.3 0.00 0.00 0.00 76 1012.7
20260906180012 59 106 7.8 13.0 0.00 0.00 0.00 78 1012.9
20260906174506 58 106 7.8 13.9 0.00 0.00 0.00 80 1013.0
20260906173008 57 106 7.0 11.3 0.00 0.00 0.00 81 1013.1
20260906171502 56 106 6.1 12.2 0.00 0.00 0.00 83 1013.3
20260906170057 55 106 6.1 10.4 0.00 0.00 0.00 84 1013.4
20260906164558 54 106 5.2 8.7 0.00 0.00 0.00 88 1013.5
20260906163053 53 106 5.2 8.7 0.00 0.00 0.00 92 1013.4
20260906161558 52 106 2.6 7.0 0.00 0.00 0.00 95 1013.6
20260906160050 51 106 0.9 4.3 0.00 0.00 0.00 97 1013.8
20260906154538 49 106 3.5 7.0 0.00 0.00 0.00 97 1014.1
20260906153043 48 106 3.5 7.0 0.00 0.00 0.00 97 1014.4
20260906151533 47 106 2.6 6.1 0.00 0.00 0.00 97 1014.6
20260906150047 47 106 1.7 6.1 0.00 0.00 0.00 97 1014.5
20260906144536 46 106 2.6 6.1 0.00 0.00 0.00 97 1014.5
20260906143034 45 106 1.7 3.5 0.00 0.00 0.00 97 1014.4
20260906141534 44 106 0.0 0.0 0.00 0.00 0.00 97 1014.3
20260906140023 43 106 0.0 1.7 0.00 0.00 0.00 97 1014.4
20260906134521 42 106 0.0 0.0 0.00 0.00 0.00 97 1014.4
20260906133020 41 106 0.0 0.9 0.00 0.00 0.00 97 1014.3
20260906131526 42 106 0.0 1.7 0.00 0.00 0.00 96 1014.4
20260906130033 42 106 0.0 0.0 0.00 0.00 0.00 97 1014.6
20260906124516 42 106 0.0 0.0 0.00 0.00 0.00 96 1014.7
20260906123015 43 106 0.0 0.0 0.00 0.00 0.00 97 1014.8
20260906121514 43 106 0.9 2.6 0.00 0.00 0.00 97 1014.9
20260906120012 42 106 0.0 3.5 0.00 0.00 0.00 97 1015.1
20260906114517 42 106 0.9 3.5 0.00 0.00 0.00 97 1015.2
20260906113010 42 106 0.0 0.0 0.00 0.00 0.00 97 1015.4
20260906111509 41 106 0.0 0.0 0.00 0.00 0.00 97 1015.4
20260906110010 40 106 0.0 0.0 0.00 0.00 0.00 96 1015.5
20260906104514 40 106 0.0 0.0 0.00 0.00 0.00 97 1015.6
20260906103005 40 106 0.0 0.0 0.00 0.00 0.00 97 1015.7
20260906101503 39 106 0.0 2.6 0.00 0.00 0.00 96 1015.9
20260906100002 38 106 0.0 1.7 0.00 0.00 0.00 96 1016.0
20260906094642 37 106 0.9 2.6 0.00 0.00 0.00 96 1016.1
20260906093106 36 106 0.0 1.7 0.00 0.00 0.00 95 1016.3
20260906091557 36 106 1.7 3.5 0.00 0.00 0.00 94 1016.4
20260906090054 37 106 0.0 0.0 0.00 0.00 0.00 94 1016.5
20260906084551 38 106 0.0 0.0 0.00 0.00 0.00 94 1016.7
20260906083052 39 106 0.0 0.0 0.00 0.00 0.00 94 1016.7
20260906081553 39 106 0.0 0.0 0.00 0.00 0.00 94 1016.9
20260906080050 40 106 0.0 0.0 0.00 0.00 0.00 94 1016.9
20260906074543 40 106 0.0 0.0 0.00 0.00 0.00 94 1017.0
20260906073040 41 106 0.0 0.9 0.00 0.00 0.00 94 1016.9
20260906071539 41 106 0.9 2.6 0.00 0.00 0.00 94 1017.0
20260906070036 42 106 0.0 0.0 0.00 0.00 0.00 95 1016.9
20260906064535 41 106 0.0 0.9 0.00 0.00 0.00 94 1017.0
20260906063036 42 106 0.0 3.5 0.00 0.00 0.00 93 1017.0
20260906061537 43 106 1.7 3.5 0.00 0.00 0.00 93 1017.0
20260906060028 43 106 0.0 1.7 0.00 0.00 0.00 94 1017.1
20260906054526 43 106 0.9 1.7 0.00 0.00 0.00 94 1016.9
20260906053025 43 106 1.7 2.6 0.00 0.00 0.00 93 1017.0
20260906051524 44 106 2.6 4.3 0.00 0.00 0.00 93 1017.2
20260906050023 44 106 2.6 4.3 0.00 0.00 0.00 92 1017.3
20260906044528 44 106 2.6 4.3 0.00 0.00 0.00 92 1017.2
20260906043022 44 106 5.2 7.8 0.00 0.00 0.00 92 1017.4
20260906041521 44 106 2.6 4.3 0.00 0.00 0.00 90 1017.5
20260906040025 44 106 3.5 6.1 0.00 0.00 0.00 90 1017.4
20260906034521 44 106 2.6 6.1 0.00 0.00 0.00 89 1017.5
20260906033020 44 106 1.7 4.3 0.00 0.00 0.00 88 1017.5
20260906031534 46 106 0.0 0.0 0.00 0.00 0.00 89 1017.5
20260906030018 47 106 0.0 0.0 0.00 0.00 0.00 85 1017.6
20260906024519 50 106 0.0 0.9 0.00 0.00 0.00 79 1017.6
20260906023019 53 106 0.0 1.7 0.00 0.00 0.00 73 1017.6
20260906021518 55 106 0.9 2.6 0.00 0.00 0.00 67 1017.7
20260906020017 58 106 0.9 1.7 0.00 0.00 0.00 61 1017.7
20260906014516 58 106 0.9 2.6 0.00 0.00 0.00 58 1017.6
20260906013016 59 106 0.9 2.6 0.00 0.00 0.00 54 1017.5
20260906011517 60 106 2.6 6.1 0.00 0.00 0.00 53 1017.5
20260906010014 60 106 2.6 4.3 0.00 0.00 0.00 51 1017.7
20260906004514 62 106 0.0 2.6 0.00 0.00 0.00 45 1017.8
20260906003021 61 106 0.9 6.1 0.00 0.00 0.00 44 1017.7
20260906001511 61 106 0.0 4.3 0.00 0.00 0.00 42 1017.7
20260906000010 61 106 2.6 6.1 0.00 0.00 0.00 43 1017.7
20260905234510 60 106 2.6 8.7 0.00 0.00 0.00 44 1017.7
20260905233010 60 106 3.5 7.0 0.00 0.00 0.00 42 1017.8
20260905231507 60 106 1.7 7.8 0.00 0.00 0.00 46 1017.9
20260905230006 60 106 3.5 9.6 0.00 0.00 0.00 49 1018.1
20260905224506 60 106 0.9 7.8 0.00 0.01 0.00 50 1018.2
20260905223015 60 106 2.6 7.0 0.00 0.01 0.00 45 1018.3
20260905221507 59 106 5.2 10.4 0.00 0.01 0.00 46 1018.5
20260905220001 59 106 0.0 9.6 0.00 0.01 0.00 49 1018.6
20260905214600 59 106 1.7 7.0 0.00 0.01 0.00 50 1018.7
20260905213107 59 106 4.3 8.7 0.00 0.01 0.00 50 1018.9
20260905211559 59 106 6.1 8.7 0.00 0.01 0.00 54 1019.1
20260905210109 58 106 2.6 9.6 0.00 0.01 0.00 53 1019.2